Location: Presov
(49.0000°N, 21.2500°E)
Time: 06:05:21
(UTC+02:00)

Transit 2A Rocket - Pass Details

Date: 23 April 2021
Orbit: 594 x 909 km, 66.7° (Epoch: 07 May)

Event Time Altitude Azimuth Distance (km) Brightness Sun altitude
Rises 21:00:22 0° 328° (NNW) 2,850 9.4 -12.5°
Reaches altitude 10° 21:03:49 10° 358° (N) 1,968 7.7 -12.9°
Maximum altitude 21:05:51 13° 26° (NNE) 1,803 7.1 -13.2°
Drops below altitude 10° 21:07:55 10° 53° (NE) 2,013 7.0 -13.4°
Enters shadow 21:10:02 - 73° (ENE) 2,519 7.4 -13.7°
Sets 21:11:32 0° 82° (E) 2,979 - -13.9°
